Regional Weather Roundup
Issued by NWS Charleston, WV

Home | Current Version | Previous Version | Graphics & Text | Print | Product List | Glossary On
Versions: 1 2 3 4 5 6 7 8 9 10 11 12 13 14 15 16 17 18 19 20 21 22 23 24 25 26 27 28 29 30 31 32 33 34 35 36 37 38 39 40 41 42 43 44 45 46 47 48 49 50
191
ASUS41 KRLX 221710
RWRRLX
West Virginia Regional Weather Roundup
National Weather Service Charleston WV
1200 PM EST WED NOV 22 2017

Note: "fair" indicates few or no clouds below 12,000 feet with no
significant weather and/or obstructions to visibility.

WVZ003-221800-
Northern Panhandle of West Virginia

CITY           SKY/WX    TMP DP  RH WIND       PRES   REMARKS
WHEELING       CLOUDY    34  26  72 N12       30.20S
$$

WVZ009-221800-
Northwest West Virginia

CITY           SKY/WX    TMP DP  RH WIND       PRES   REMARKS
PARKERSBURG    CLOUDY    39  29  67 VRB6      30.25F
$$

WVZ006-221800-
Western West Virginia

CITY           SKY/WX    TMP DP  RH WIND       PRES   REMARKS
HUNTINGTON     PTSUNNY   40  25  55 N8        30.25S
$$

WVZ015-221800-
West Central West Virginia

CITY           SKY/WX    TMP DP  RH WIND       PRES   REMARKS
CHARLESTON     CLOUDY    39  30  70 NW7       30.22S
$$

WVZ022-031-221800-
North Central West Virginia

CITY           SKY/WX    TMP DP  RH WIND       PRES   REMARKS
CLARKSBURG     CLOUDY    38  27  64 W9        30.18F
MORGANTOWN     CLOUDY    36  29  75 VRB6      30.18S
$$

WVZ025-035-042-045-221800-
Southern West Virginia

CITY           SKY/WX    TMP DP  RH WIND       PRES   REMARKS
BECKLEY        CLOUDY    38  26  62 NW12      30.12F
LOGAN          CLOUDY    39  28  65 CALM      30.19F
BLUEFIELD      MOSUNNY   40  25  55 NW13G20   30.11F
LEWISBURG      MOSUNNY   41  27  56 NW12G20   30.11F
$$

WVZ047-221800-
Northern Mountains of West Virginia

CITY           SKY/WX    TMP DP  RH WIND       PRES   REMARKS
ELKINS         CLOUDY    35  24  64 NW10G18   30.14F
$$

WVZ052-221800-
Eastern Panhandle of West Virginia

CITY           SKY/WX    TMP DP  RH WIND       PRES   REMARKS
MARTINSBURG    PTSUNNY   49  28  44 NW15G32   30.04F
PETERSBURG     CLOUDY    42  26  53 NW14G24   30.13R
$$




USA.gov is the U.S. government's official web portal to all federal, state and local government web resources and services.